McMinnville, OR

4:13 PM PDT on June 27, 2017 (GMT -0700)
McMinnville Municipal

Weather History for KMMV - March, 2014

Change the Weather History Date:

Thursday, March 27, 2014

  Actual Average Record
Temperature  
Mean Temperature 51 °F 48 °F  
Max Temperature 56 °F 58 °F 86 °F (1923)
Min Temperature 45 °F 38 °F 23 °F (1920)
Degree Days  
Heating Degree Days 14 17  
Month to date heating degree days 440 505  
Since 1 July heating degree days 3865 3884  
Cooling Degree Days 0 0  
Month to date cooling degree days 0 0  
Year to date cooling degree days 0 0  
Moisture  
Dew Point 45 °F    
Average Humidity 77    
Maximum Humidity 93    
Minimum Humidity 61    
Precipitation  
Precipitation 0.41 in 0.12 in 1.52 in (1936)
Month to date precipitation 5.01 3.56  
Year to date precipitation 13.28 14.10  
Sea Level Pressure  
Sea Level Pressure 29.75 in    
Wind  
Wind Speed 13 mph (South)    
Max Wind Speed 18 mph    
Max Gust Speed 22 mph    
Visibility 9 miles    
Events Rain    
T = Trace of Precipitation, MM = Missing Value Source: NWS Daily Summary

Daily Weather History Graph

Daily Weather History Graph

Search for Another Location

Airport or City:

Trip Planner

Search our weather history database for the weather conditions in past years. The results will help you decide how hot, cold, wet, or windy it might be!

Date:

Astronomy

Mar. 27, 2014 Rise Set
Actual Time 7:02 AM PDT 7:34 PM PDT
Civil Twilight 6:32 AM PDT 8:03 PM PDT
Nautical Twilight 5:57 AM PDT 8:38 PM PDT
Astronomical Twilight 5:21 AM PDT 9:15 PM PDT
Moon 5:06 AM PDT 4:20 PM PDT
Length of Visible Light 13h 31m
Length of Day
12h 32m
Waning Crescent, 12% of the Moon is Illuminated
Mar 27
Waning Crescent
Mar 30
New
Apr 7
First Quarter
Apr 15
Full
Apr 22
Last Quarter

Hourly Weather History & Observations

Time (PDT) Temp. Windchill Dew Point Humidity Pressure Visibility Wind Dir Wind Speed Gust Speed Precip Events Conditions
12:53 AM 46.0 °F 41.4 °F 44.1 °F 93% 29.61 in 6.0 mi SSE 9.2 mph - 0.05 in Rain Light Rain
1:00 AM 46.0 °F 41.4 °F 44.1 °F 93% 29.61 in 5.0 mi SSE 9.2 mph - 0.01 in Rain Light Rain
1:33 AM 46.0 °F 41.0 °F 44.1 °F 93% 29.61 in 10.0 mi South 10.4 mph 21.9 mph 0.04 in Rain Light Rain
1:53 AM 46.0 °F 39.9 °F 44.1 °F 93% 29.61 in 10.0 mi SSE 13.8 mph - 0.04 in Rain Light Rain
2:10 AM 46.0 °F 39.3 °F 44.1 °F 93% 29.61 in 9.0 mi South 16.1 mph - 0.01 in Rain Light Rain
2:53 AM 46.0 °F 40.6 °F 44.1 °F 93% 29.63 in 8.0 mi South 11.5 mph - 0.10 in Rain Light Rain
3:20 AM 46.0 °F 40.6 °F 44.1 °F 93% 29.62 in 5.0 mi SSE 11.5 mph - 0.10 in Rain Rain
3:30 AM 45.0 °F 39.3 °F 44.1 °F 97% 29.62 in 7.0 mi SSE 11.5 mph - 0.11 in Rain Light Rain
3:53 AM 46.0 °F 39.0 °F 44.1 °F 93% 29.62 in 7.0 mi South 17.3 mph - 0.14 in Rain Rain
4:42 AM 45.0 °F 39.3 °F 45.0 °F 100% 29.63 in 10.0 mi SSE 11.5 mph - 0.03 in Rain Light Rain
4:53 AM 45.0 °F 38.5 °F 44.1 °F 97% 29.63 in 10.0 mi SSE 13.8 mph - 0.03 in   Overcast
5:13 AM 45.0 °F 39.3 °F 45.0 °F 100% 29.64 in 8.0 mi SSE 11.5 mph - 0.02 in Rain Light Rain
5:53 AM 46.0 °F 41.0 °F 45.0 °F 96% 29.65 in 10.0 mi South 10.4 mph - 0.02 in   Overcast
6:53 AM 46.9 °F - 45.0 °F 93% 29.68 in 10.0 mi South 12.7 mph - 0.04 in   Overcast
7:11 AM 46.0 °F 40.6 °F 45.0 °F 96% 29.68 in 9.0 mi South 11.5 mph - N/A   Overcast
7:30 AM 46.9 °F - 45.0 °F 93% 29.70 in 10.0 mi South 12.7 mph - 0.00 in Rain Light Rain
7:53 AM 46.9 °F - 45.0 °F 93% 29.71 in 10.0 mi South 11.5 mph - 0.00 in   Overcast
8:53 AM 48.0 °F - 45.0 °F 89% 29.74 in 7.0 mi SSW 12.7 mph - 0.00 in   Overcast
9:12 AM 48.0 °F - 46.0 °F 93% 29.75 in 6.0 mi SSW 10.4 mph - 0.01 in Rain Light Rain
9:53 AM 48.9 °F - 46.9 °F 93% 29.77 in 10.0 mi SSW 11.5 mph - 0.01 in   Mostly Cloudy
10:53 AM 50.0 °F - 46.9 °F 89% 29.81 in 10.0 mi SW 13.8 mph - 0.00 in   Overcast
11:53 AM 52.0 °F - 46.9 °F 83% 29.83 in 10.0 mi SSW 13.8 mph - 0.00 in   Mostly Cloudy
12:53 PM 55.0 °F - 46.0 °F 72% 29.84 in 10.0 mi SW 15.0 mph - N/A   Clear
1:53 PM 54.0 °F - 48.0 °F 80% 29.85 in 10.0 mi WSW 12.7 mph - 0.03 in   Mostly Cloudy
2:53 PM 55.0 °F - 46.0 °F 72% 29.86 in 10.0 mi West 16.1 mph - 0.00 in   Mostly Cloudy
3:53 PM 55.0 °F - 43.0 °F 64% 29.88 in 10.0 mi West 18.4 mph - 0.00 in   Scattered Clouds
4:53 PM 55.0 °F - 45.0 °F 69% 29.88 in 10.0 mi WSW 11.5 mph - N/A   Overcast
5:53 PM 54.0 °F - 44.1 °F 69% 29.89 in 10.0 mi SW 11.5 mph - N/A   Unknown
6:41 PM 53.1 °F - 46.0 °F 77% 29.89 in 10.0 mi SSW 9.2 mph - N/A   Overcast
6:53 PM 52.0 °F - 46.0 °F 80% 29.90 in 10.0 mi South 11.5 mph - N/A   Overcast
7:53 PM 50.0 °F - 46.0 °F 86% 29.91 in 10.0 mi SSW 8.1 mph - 0.00 in   Overcast
8:53 PM 50.0 °F - 45.0 °F 83% 29.92 in 10.0 mi SW 4.6 mph - N/A   Mostly Cloudy
9:53 PM 50.0 °F - 44.1 °F 80% 29.92 in 10.0 mi South 6.9 mph - N/A   Overcast
10:53 PM 50.0 °F - 46.0 °F 86% 29.92 in 10.0 mi SSE 10.4 mph - 0.00 in Rain Light Rain
11:53 PM 48.9 °F - 48.0 °F 97% 29.91 in 7.0 mi SE 5.8 mph - 0.02 in Rain Light Rain